TVF4232 GCTS-LPMA

Flight info

Callsign TVF4232
Flight time 0h 48m
Altitude 34000
Route BIMBO DCT EKNOT
Aircraft B738/M-SDE2E3FGHIRWXY/LB1

Departure

Time 2026-05-07 12:36
Airport Tenerife Sur Airport (GCTS)

Arrival

Time 2026-05-07 13:24
Airport Cristiano Ronaldo International Airport (LPMA)
Time Latitude Longitude Altitude Speed Heading
2026-05-07 12:20 28.04695 -16.57331 217 ft 0 kts 339°
2026-05-07 12:24 28.04694 -16.57331 217 ft 1 kts 339°
2026-05-07 12:24 28.04681 -16.57325 217 ft 3 kts 339°
2026-05-07 12:25 28.04664 -16.57318 217 ft 3 kts 339°
2026-05-07 12:25 28.04645 -16.57309 217 ft 3 kts 339°
2026-05-07 12:25 28.04626 -16.57301 217 ft 3 kts 339°
2026-05-07 12:25 28.04619 -16.57298 217 ft 0 kts 339°
2026-05-07 12:27 28.04620 -16.57298 217 ft 0 kts 339°
2026-05-07 12:27 28.04626 -16.57313 217 ft 4 kts 263°
2026-05-07 12:28 28.04603 -16.57358 217 ft 11 kts 249°
2026-05-07 12:28 28.04574 -16.57442 217 ft 9 kts 249°
2026-05-07 12:28 28.04554 -16.57501 217 ft 10 kts 249°
2026-05-07 12:28 28.04524 -16.57586 217 ft 13 kts 249°
2026-05-07 12:29 28.04497 -16.57664 217 ft 9 kts 248°
2026-05-07 12:29 28.04467 -16.57748 217 ft 14 kts 249°
2026-05-07 12:29 28.04438 -16.57832 217 ft 8 kts 249°
2026-05-07 12:29 28.04425 -16.57870 217 ft 9 kts 248°
2026-05-07 12:30 28.04382 -16.57992 217 ft 14 kts 248°
2026-05-07 12:30 28.04354 -16.58071 217 ft 7 kts 248°
2026-05-07 12:30 28.04337 -16.58121 217 ft 8 kts 249°
2026-05-07 12:30 28.04313 -16.58191 217 ft 12 kts 249°
2026-05-07 12:31 28.04278 -16.58291 217 ft 16 kts 249°
2026-05-07 12:31 28.04235 -16.58416 217 ft 17 kts 248°
2026-05-07 12:31 28.04192 -16.58537 217 ft 16 kts 248°
2026-05-07 12:31 28.04153 -16.58647 217 ft 13 kts 248°
2026-05-07 12:32 28.04120 -16.58743 217 ft 12 kts 248°
2026-05-07 12:32 28.04075 -16.58796 217 ft 11 kts 184°
2026-05-07 12:32 28.04018 -16.58762 217 ft 6 kts 123°
2026-05-07 12:32 28.04007 -16.58726 217 ft 5 kts 101°
2026-05-07 12:33 28.03988 -16.58604 217 ft 6 kts 100°
2026-05-07 12:33 28.03987 -16.58579 217 ft 2 kts 83°
2026-05-07 12:33 28.03991 -16.58561 217 ft 1 kts 71°
2026-05-07 12:35 28.03994 -16.58551 217 ft 7 kts 71°
2026-05-07 12:35 28.04078 -16.58306 217 ft 64 kts 68°
2026-05-07 12:35 28.04316 -16.57625 217 ft 120 kts 70°
2026-05-07 12:36 28.04673 -16.56592 379 ft 152 kts 69°
2026-05-07 12:36 28.05079 -16.55485 1074 ft 154 kts 68°
2026-05-07 12:36 28.05498 -16.54364 1697 ft 160 kts 70°
2026-05-07 12:36 28.05927 -16.53117 2086 ft 182 kts 70°
2026-05-07 12:37 28.06410 -16.51693 2390 ft 206 kts 69°
2026-05-07 12:37 28.06956 -16.50090 2735 ft 229 kts 68°
2026-05-07 12:37 28.07554 -16.48344 3243 ft 246 kts 67°
2026-05-07 12:37 28.08189 -16.46498 3889 ft 257 kts 67°
2026-05-07 12:38 28.08837 -16.44584 4609 ft 264 kts 68°
2026-05-07 12:38 28.09504 -16.42618 5342 ft 270 kts 62°
2026-05-07 12:38 28.10672 -16.40990 6085 ft 273 kts 39°
2026-05-07 12:38 28.12198 -16.39685 6828 ft 278 kts 35°
2026-05-07 12:39 28.13778 -16.38384 7562 ft 283 kts 35°
2026-05-07 12:39 28.15381 -16.37059 8315 ft 287 kts 35°
2026-05-07 12:39 28.17001 -16.35718 9057 ft 291 kts 35°
2026-05-07 12:39 28.18645 -16.34354 9762 ft 295 kts 35°
2026-05-07 12:40 28.20312 -16.32957 10433 ft 301 kts 35°
2026-05-07 12:40 28.22019 -16.31513 10986 ft 312 kts 35°
2026-05-07 12:40 28.23776 -16.30016 11321 ft 329 kts 35°
2026-05-07 12:40 28.25660 -16.28408 11578 ft 348 kts 34°
2026-05-07 12:41 28.27788 -16.26964 11815 ft 364 kts 23°
2026-05-07 12:41 28.30206 -16.25938 12042 ft 379 kts 13°
2026-05-07 12:41 28.32832 -16.25325 12326 ft 391 kts
2026-05-07 12:41 28.35536 -16.24770 12812 ft 398 kts
2026-05-07 12:42 28.38276 -16.24221 13378 ft 402 kts
2026-05-07 12:42 28.41047 -16.23665 13948 ft 406 kts
2026-05-07 12:42 28.43846 -16.23102 14511 ft 410 kts
2026-05-07 12:42 28.46634 -16.22540 15067 ft 415 kts
2026-05-07 12:43 28.49486 -16.21964 15621 ft 419 kts
2026-05-07 12:43 28.52369 -16.21382 16165 ft 423 kts
2026-05-07 12:43 28.55283 -16.20793 16696 ft 427 kts
2026-05-07 12:43 28.58219 -16.20199 17190 ft 431 kts
2026-05-07 12:44 28.61188 -16.19598 17693 ft 435 kts
2026-05-07 12:44 28.64183 -16.18992 18148 ft 439 kts
2026-05-07 12:44 28.67202 -16.18385 18652 ft 442 kts
2026-05-07 12:44 28.70198 -16.17780 19121 ft 445 kts
2026-05-07 12:45 28.73258 -16.17160 19597 ft 448 kts
2026-05-07 12:45 28.76337 -16.16535 20031 ft 451 kts
2026-05-07 12:45 28.79435 -16.15906 20481 ft 454 kts
2026-05-07 12:45 28.82550 -16.15272 20898 ft 457 kts
2026-05-07 12:46 28.85688 -16.14633 21314 ft 459 kts
2026-05-07 12:46 28.88845 -16.13990 21702 ft 462 kts
2026-05-07 12:46 28.92019 -16.13344 22078 ft 465 kts
2026-05-07 12:46 28.95167 -16.12677 22472 ft 468 kts
2026-05-07 12:47 28.98344 -16.11764 22800 ft 474 kts 11°
2026-05-07 12:47 29.01517 -16.10674 23134 ft 478 kts 13°
2026-05-07 12:47 29.04700 -16.09543 23498 ft 480 kts 12°
2026-05-07 12:47 29.07897 -16.08416 23823 ft 482 kts 12°
2026-05-07 12:48 29.11110 -16.07290 24129 ft 485 kts 12°
2026-05-07 12:48 29.14346 -16.06162 24438 ft 487 kts 12°
2026-05-07 12:48 29.17593 -16.05033 24764 ft 489 kts 12°
2026-05-07 12:48 29.20806 -16.03918 25086 ft 490 kts 12°
2026-05-07 12:49 29.24077 -16.02784 25375 ft 492 kts 12°
2026-05-07 12:49 29.27358 -16.01647 25677 ft 494 kts 12°
2026-05-07 12:49 29.30655 -16.00510 25965 ft 496 kts 12°
2026-05-07 12:49 29.33967 -15.99368 26254 ft 498 kts 12°
2026-05-07 12:50 29.37286 -15.98221 26539 ft 499 kts 12°
2026-05-07 12:50 29.40610 -15.97072 26909 ft 499 kts 12°
2026-05-07 12:50 29.43923 -15.95927 27372 ft 496 kts 12°
2026-05-07 12:50 29.47222 -15.94784 27775 ft 495 kts 11°
2026-05-07 12:51 29.50468 -15.93659 28195 ft 493 kts 11°
2026-05-07 12:51 29.53751 -15.92521 28588 ft 492 kts 11°
2026-05-07 12:51 29.57026 -15.91384 29025 ft 491 kts 11°
2026-05-07 12:51 29.60284 -15.90253 29480 ft 488 kts 11°
2026-05-07 12:52 29.63533 -15.89124 29898 ft 487 kts 11°
2026-05-07 12:52 29.66784 -15.87993 30036 ft 489 kts 11°
2026-05-07 12:52 29.73295 -15.85733 30057 ft 488 kts 11°
2026-05-07 12:53 29.79741 -15.83486 30057 ft 487 kts 11°
2026-05-07 12:53 29.86231 -15.81218 30056 ft 487 kts 11°
2026-05-07 12:54 29.92719 -15.78947 30055 ft 487 kts 11°
2026-05-07 12:54 29.99248 -15.77574 30054 ft 475 kts 356°
2026-05-07 12:55 30.05751 -15.78063 30054 ft 465 kts 346°
2026-05-07 12:55 30.12130 -15.79243 30053 ft 464 kts 344°
2026-05-07 12:56 30.18502 -15.80443 30053 ft 464 kts 345°
2026-05-07 12:56 30.24893 -15.81630 30052 ft 465 kts 345°
2026-05-07 12:57 30.31241 -15.82802 30052 ft 465 kts 345°
2026-05-07 12:57 30.37636 -15.83974 30051 ft 465 kts 345°
2026-05-07 12:58 30.44029 -15.85145 30051 ft 466 kts 345°
2026-05-07 12:58 30.50439 -15.86320 30051 ft 466 kts 345°
2026-05-07 12:59 30.56803 -15.87488 30050 ft 467 kts 345°
2026-05-07 12:59 30.63220 -15.88668 30050 ft 467 kts 345°
2026-05-07 13:00 30.69644 -15.89850 30050 ft 468 kts 345°
2026-05-07 13:00 30.76031 -15.91027 30049 ft 468 kts 345°
2026-05-07 13:01 30.82471 -15.92216 30049 ft 469 kts 345°
2026-05-07 13:01 30.88923 -15.93408 30049 ft 470 kts 345°
2026-05-07 13:02 30.95370 -15.94601 30049 ft 470 kts 344°
2026-05-07 13:02 31.01840 -15.95801 30049 ft 471 kts 344°
2026-05-07 13:03 31.08362 -15.97011 30047 ft 471 kts 344°
2026-05-07 13:03 31.14846 -15.98212 30048 ft 472 kts 344°
2026-05-07 13:04 31.20214 -15.99211 30046 ft 458 kts 344°
2026-05-07 13:04 31.23318 -15.99789 29979 ft 443 kts 344°
2026-05-07 13:04 31.26343 -16.00353 29303 ft 442 kts 343°
2026-05-07 13:05 31.29429 -16.00930 28026 ft 457 kts 344°
2026-05-07 13:05 31.32621 -16.01527 26663 ft 471 kts 344°
2026-05-07 13:05 31.35902 -16.02140 25355 ft 483 kts 345°
2026-05-07 13:05 31.39197 -16.02756 24357 ft 487 kts 345°
2026-05-07 13:06 31.42481 -16.03454 24043 ft 475 kts 341°
2026-05-07 13:06 31.45682 -16.04395 23791 ft 475 kts 338°
2026-05-07 13:06 31.48844 -16.05468 23225 ft 469 kts 337°
2026-05-07 13:06 31.51942 -16.06585 22531 ft 463 kts 336°
2026-05-07 13:07 31.55014 -16.07687 21835 ft 460 kts 337°
2026-05-07 13:07 31.58062 -16.08769 21139 ft 456 kts 337°
2026-05-07 13:07 31.61090 -16.09839 20443 ft 452 kts 337°
2026-05-07 13:07 31.64094 -16.10894 19750 ft 449 kts 338°
2026-05-07 13:08 31.67033 -16.11925 19069 ft 445 kts 338°
2026-05-07 13:08 31.69988 -16.12959 18383 ft 441 kts 338°
2026-05-07 13:08 31.72918 -16.13983 17702 ft 438 kts 338°
2026-05-07 13:08 31.75825 -16.14996 17025 ft 434 kts 338°
2026-05-07 13:09 31.78707 -16.15998 16352 ft 430 kts 338°
2026-05-07 13:09 31.81559 -16.16990 15706 ft 425 kts 339°
2026-05-07 13:09 31.84377 -16.17972 15075 ft 421 kts 339°
2026-05-07 13:09 31.87164 -16.18942 14447 ft 416 kts 339°
2026-05-07 13:10 31.89914 -16.19898 13851 ft 410 kts 339°
2026-05-07 13:10 31.92637 -16.20846 13299 ft 404 kts 339°
2026-05-07 13:10 31.95277 -16.21768 12765 ft 398 kts 340°
2026-05-07 13:10 31.97893 -16.22683 12499 ft 385 kts 340°
2026-05-07 13:11 32.00420 -16.23568 12280 ft 373 kts 340°
2026-05-07 13:11 32.02866 -16.24425 12072 ft 361 kts 340°
2026-05-07 13:11 32.05242 -16.25258 11873 ft 351 kts 340°
2026-05-07 13:11 32.07546 -16.26067 11682 ft 341 kts 340°
2026-05-07 13:12 32.09788 -16.26854 11496 ft 332 kts 340°
2026-05-07 13:12 32.11972 -16.27622 11316 ft 323 kts 340°
2026-05-07 13:12 32.14104 -16.28370 11140 ft 316 kts 340°
2026-05-07 13:12 32.16130 -16.29243 10955 ft 304 kts 326°
2026-05-07 13:13 32.17649 -16.30831 10798 ft 291 kts 308°
2026-05-07 13:13 32.18885 -16.32686 10630 ft 284 kts 304°
2026-05-07 13:13 32.20007 -16.34571 10468 ft 277 kts 302°
2026-05-07 13:13 32.21055 -16.36452 10313 ft 271 kts 301°
2026-05-07 13:14 32.22070 -16.38309 10164 ft 267 kts 301°
2026-05-07 13:14 32.23069 -16.40154 9964 ft 267 kts 300°
2026-05-07 13:14 32.24067 -16.42011 9691 ft 268 kts 301°
2026-05-07 13:14 32.25060 -16.43867 9412 ft 267 kts 301°
2026-05-07 13:15 32.26047 -16.45721 9130 ft 267 kts 301°
2026-05-07 13:15 32.27018 -16.47552 8844 ft 266 kts 301°
2026-05-07 13:15 32.28012 -16.49429 8549 ft 276 kts 301°
2026-05-07 13:15 32.29059 -16.51394 8253 ft 288 kts 301°
2026-05-07 13:16 32.30142 -16.53423 7954 ft 294 kts 301°
2026-05-07 13:16 32.31236 -16.55485 7654 ft 298 kts 301°
2026-05-07 13:16 32.32338 -16.57570 7354 ft 300 kts 301°
2026-05-07 13:16 32.33436 -16.59656 7053 ft 298 kts 301°
2026-05-07 13:17 32.34521 -16.61723 6753 ft 295 kts 301°
2026-05-07 13:17 32.35581 -16.63746 6456 ft 292 kts 301°
2026-05-07 13:17 32.36644 -16.65778 6155 ft 289 kts 301°
2026-05-07 13:17 32.37696 -16.67792 5855 ft 287 kts 301°
2026-05-07 13:18 32.38740 -16.69793 5554 ft 285 kts 301°
2026-05-07 13:18 32.39780 -16.71788 5253 ft 285 kts 301°
2026-05-07 13:18 32.40817 -16.73778 4953 ft 284 kts 301°
2026-05-07 13:18 32.41853 -16.75767 4652 ft 283 kts 301°
2026-05-07 13:19 32.42893 -16.77736 4350 ft 281 kts 304°
2026-05-07 13:19 32.44285 -16.79322 4093 ft 277 kts 328°
2026-05-07 13:19 32.46045 -16.80129 3981 ft 265 kts 345°
2026-05-07 13:19 32.47799 -16.80406 3870 ft 252 kts 358°
2026-05-07 13:20 32.49506 -16.80299 3791 ft 240 kts 359°
2026-05-07 13:20 32.51145 -16.80301 3654 ft 233 kts 358°
2026-05-07 13:20 32.52764 -16.80335 3399 ft 232 kts 358°
2026-05-07 13:20 32.54372 -16.80348 3102 ft 230 kts 359°
2026-05-07 13:21 32.55968 -16.80348 2806 ft 228 kts 359°
2026-05-07 13:21 32.57522 -16.80348 2504 ft 219 kts 359°
2026-05-07 13:21 32.59014 -16.80348 2213 ft 210 kts 359°
2026-05-07 13:21 32.60417 -16.80366 1951 ft 198 kts 358°
2026-05-07 13:22 32.61751 -16.80363 1694 ft 185 kts 359°
2026-05-07 13:22 32.62997 -16.80360 1451 ft 175 kts 359°
2026-05-07 13:22 32.64159 -16.80364 1279 ft 159 kts 358°
2026-05-07 13:22 32.65245 -16.80381 1045 ft 154 kts 358°
2026-05-07 13:23 32.66298 -16.80372 829 ft 149 kts
2026-05-07 13:23 32.67300 -16.80136 631 ft 147 kts 21°
2026-05-07 13:23 32.68126 -16.79406 428 ft 152 kts 43°
2026-05-07 13:23 32.68865 -16.78526 224 ft 150 kts 42°
2026-05-07 13:24 32.69568 -16.77698 152 ft 129 kts 40°
2026-05-07 13:24 32.70010 -16.77184 152 ft 51 kts 43°
2026-05-07 13:24 32.70182 -16.76983 152 ft 29 kts 45°
2026-05-07 13:24 32.70311 -16.76831 152 ft 20 kts 39°
2026-05-07 13:25 32.70381 -16.76787 152 ft 8 kts 114°
2026-05-07 13:25 32.70315 -16.76827 152 ft 17 kts 224°
2026-05-07 13:25 32.70220 -16.76937 152 ft 22 kts 225°
2026-05-07 13:25 32.70102 -16.77077 152 ft 23 kts 225°
2026-05-07 13:26 32.69994 -16.77171 152 ft 16 kts 185°
2026-05-07 13:26 32.69902 -16.77173 152 ft 10 kts 181°
2026-05-07 13:26 32.69827 -16.77193 152 ft 14 kts 222°
2026-05-07 13:26 32.69758 -16.77277 152 ft 13 kts 226°
2026-05-07 13:27 32.69674 -16.77380 152 ft 19 kts 226°
2026-05-07 13:27 32.69594 -16.77478 152 ft 14 kts 226°
2026-05-07 13:27 32.69538 -16.77515 152 ft 8 kts 160°
2026-05-07 13:27 32.69491 -16.77472 152 ft 6 kts 138°
2026-05-07 13:28 32.69484 -16.77465 152 ft 0 kts 138°